Location: Kumla
(59.1265°N, 15.1401°E)
Time: 21:29:41
(UTC+01:00)

Transit 2A - Pass Details

Date: 12 December 2023
Orbit: 600 x 953 km, 66.7° (Epoch: 24 February)

Event Time Altitude Azimuth Distance (km) Brightness Sun altitude
Rises 13:38:16 0° 189° (S) 3,112 11.0 5.0°
Reaches altitude 10° 13:40:57 10° 178° (S) 2,138 9.6 4.8°
Maximum altitude 13:44:59 27° 120° (ESE) 1,245 7.3 4.6°
Drops below altitude 10° 13:48:48 10° 63° (ENE) 2,011 7.7 4.4°
Sets 13:51:15 0° 51° (NE) 2,892 8.4 4.3°
